This demonstration page uses our WeatherBlox Daily Observations layout. Learn more.

Left ArrowRight Arrow

Hourly Observations for May 6, 2017

Temp ( °F °C ) Dew Point ( °F °C ) Humidity (%) Winds ( mph kmh ) Pressure ( in mb ) Visibility ( mi km ) Precip ( " mm )
12:53 am 00:53 Cloudy 50 10 43 6.1 77 77 W 13 20 29.71 1006 10 16 0.00 0.00
1:53 am 01:53 Cloudy 50 10 44 6.7 80 80 WNW 10 17 29.72 1006 10 16 0.00 0.00
2:06 am 02:06 Cloudy 50 10 45 7 82 82 WNW 9 15 29.74 1007 10 16 0.00 0.00
2:53 am 02:53 Mostly Cloudy 49 9.4 44 6.7 83 83 W 9 15 29.72 1007 10 16 0.00 0.00
3:01 am 03:01 Mostly Cloudy 49 9.4 44 6.7 83 83 WNW 10 17 29.71 1006 10 16 0.00 0.00
3:53 am 03:53 Partly Cloudy 49 9.4 44 6.7 83 83 WNW 13 20 29.73 1007 10 16 0.00 0.00
4:53 am 04:53 Clear 48 8.9 44 6.7 86 86 WNW 7 11 29.73 1007 10 16 0.00 0.00
5:53 am 05:53 Partly Cloudy 47 8.3 45 7.2 93 93 W 7 11 29.76 1008 10 16 0.00 0.00
6:53 am 06:53 Sunny 46 7.8 45 7.2 96 96 WSW 5 7 29.78 1009 10 16 0.00 0.00
7:53 am 07:53 Sunny 47 8.3 45 7.2 93 93 W 8 13 29.81 1009 10 16 0.00 0.00
8:53 am 08:53 Sunny 52 11.1 45 7.2 77 77 WNW 10 17 29.83 1010 10 16 0.00 0.00
9:53 am 09:53 Sunny 55 12.8 44 6.7 67 67 NW 12 19 29.84 1011 10 16 0.00 0.00
10:53 am 10:53 Sunny 59 15 42 5.6 54 54 WNW 16 26 29.85 1011 10 16 0.00 0.00
11:53 am 11:53 Sunny 64 17.8 40 4.4 41 41 W 15 24 29.84 1010 10 16 0.00 0.00
12:53 pm 12:53 Sunny 66 18.9 40 4.4 39 39 W 9 15 29.81 1010 10 16 0.00 0.00
1:53 pm 13:53 Sunny 69 20.6 36 2.2 30 30 WNW 20 31 29.79 1009 10 16 0.00 0.00
2:53 pm 14:53 Sunny 70 21.1 44 6.7 39 39 W 14 22 29.77 1008 10 16 0.00 0.00
3:53 pm 15:53 Sunny 72 22.2 44 6.7 37 37 W 17 28 29.74 1007 10 16 0.00 0.00
4:53 pm 16:53 Sunny 73 22.8 44 6.7 35 35 W 17 28 29.71 1006 10 16 0.00 0.00
5:53 pm 17:53 Sunny 73 23 45 7 36 36 WSW 18 30 29.68 1005 10 16 0.00 0.00
6:53 pm 18:53 Mostly Cloudy 72 22.2 44 6.7 37 37 WSW 18 30 29.70 1006 10 16 0.00 0.00
7:53 pm 19:53 Mostly Cloudy 71 21.7 44 6.7 38 38 WSW 14 22 29.70 1006 10 16 0.00 0.00
8:53 pm 20:53 Cloudy 62 16.7 54 12.2 75 75 NNW 8 13 29.79 1009 10 16 0.00 0.03
9:53 pm 21:53 Cloudy 60 15.6 55 12.8 84 84 N 7 11 29.81 1010 10 16 0.00 0.03
10:53 pm 22:53 Cloudy 58 14.4 51 10.6 78 78 NNW 9 15 29.85 1011 10 16 0.00 0.03
11:53 pm 23:53 Cloudy 57 13.9 49 9.4 74 74 NNW 8 13 29.87 1012 10 16 0.00 0.00

Powered by AerisWeather